Regional Weather Roundup
Issued by NWS

Home | Current Version | Previous Version | Text Only | Print | Product List | Glossary On
Versions: 1 2 3 4 5 6 7 8 9 10 11 12 13 14 15 16 17 18 19 20 21 22 23 24 25 26 27 28 29 30 31 32 33 34 35 36 37 38 39 40 41 42 43 44 45 46 47 48 49 50
000
ASUS44 KJAN 150910
RWRMS

MISSISSIPPI HOURLY WEATHER ROUNDUP
NATIONAL WEATHER SERVICE JACKSON MS
300 AM CST FRI NOV 15 2019

NOTE: "FAIR: INDICATES FEW OR NO CLOUDS BELOW 12,000 FEET WITH NO
SIGNIFICANT WEATHER AND/OR OBSTRUCTIONS TO VISIBILITY.

MSZ001>002-007>008-010>013-018>021-025>028-034>036-151000-
NORTHWEST MISSISSIPPI

CITY           SKY/WX    TMP DP  RH WIND       PRES   REMARKS
BATESVILLE     FAIR      28  27  93 CALM      30.34S
CLARKSDALE       N/A     34  32  93 NW5       30.35S WCI  30
CLEVELAND      FAIR      35  29  80 N5        30.34F WCI  31
GREENWOOD      FAIR      32  29  88 CALM      30.32F
GREENVILLE     FAIR      36  28  73 N6        30.34S WCI  31
OLIVE BRANCH   CLEAR     32  27  80 N5        30.33S WCI  27
OXFORD         FAIR      30  25  80 CALM      30.34S
TUNICA           N/A     32  28  86 N6        30.36F WCI  26
WINONA         FAIR      36  29  74 NE5       30.30F WCI  32
$$

MSZ003>006-009-014>017-022>024-029>033-037>039-151000-
NORTHEAST MISSISSIPPI

CITY           SKY/WX    TMP DP  RH WIND       PRES   REMARKS
ABERDEEN       FAIR      55  43  62 CALM      30.30S
COLUMBUS AFB   MOCLDY    41  30  64 NW5       30.27S
CORINTH        FAIR      34  25  69 NW5       30.31S WCI  30
GOLDN TRIANGLE FAIR      41  32  70 N8        30.28F
STARKVILLE     FAIR      37  32  81 CALM      30.30S
TUPELO         FAIR      35  26  69 N6        30.30S WCI  30
$$

MSZ040-058-151000-
CENTRAL MISSISSIPPI

CITY           SKY/WX    TMP DP  RH WIND       PRES   REMARKS
JACKSON INTL   FAIR      38  35  89 CALM      30.29S
JACKSON HAWKNS FAIR      38  35  89 NW5       30.29F WCI  34
MADISON        FAIR      36  36 100 CALM        N/A
MERIDIAN KEY   FAIR      43  38  82 N3        30.26S
MERIDIAN NAS   FAIR      41  38  89 NW3       30.25F
RAYMOND          N/A     36  36 100 NW5       30.30F FOG     WCI  32
$$

MSZ059>079-151000-
SOUTH MISSISSIPPI

CITY           SKY/WX    TMP DP  RH WIND       PRES   REMARKS
BROOKHAVEN     FAIR      39  39 100 NE5       30.29S
HATTIESBURG    FAIR      43  40  89 NW5       30.26F
LAUREL         SUNNY     42  40  94 NW6       30.26F
MCCOMB         FAIR      40  37  89 NW6       30.27F
NATCHEZ        CLOUDY    41  40  96 N6        30.32F
PINE BELT      FAIR      42  41  96 NW6       30.27S
$$

MSZ080>082-151000-
COASTAL MISSISSIPPI

CITY           SKY/WX    TMP DP  RH WIND       PRES   REMARKS
BILOXI         CLOUDY    45  39  79 N12       30.22F
PASCAGOULA     CLOUDY    47  39  74 N8G20     30.22F
GULFPORT       MOCLDY    45  38  76 NW8       30.23S
$$

LAZ007>009-015>016-023>026-151000-
NORTHEAST LOUISIANA

CITY           SKY/WX    TMP DP  RH WIND       PRES   REMARKS
BASTROP        FAIR     N/A N/A N/A CALM      30.35F
TALLULAH/VBURG MOCLDY    40  37  89 NW5       30.33S FOG
VIDALIA        PTSUNNY   42  40  95 N5        30.32S
$$



USA.gov is the U.S. government's official web portal to all federal, state and local government web resources and services.